OCN1L LEIB-EDDM

Flight info

Callsign OCN1L
Flight time 1h 54m
Altitude 36000
Route KABRE DCT ELTAN DCT ISTER DCT NIVDA DCT OMEDA DCT RAPUR DCT TORTU DCT ERTEV DCT TAGIP DCT GUNGO DCT IVKAL T102 NINUR T101 BETOS BETOS1B
Aircraft A320/M-SDE2E3FGIJ1LORWXYZ/HB1

Departure

Time 2026-05-06 22:16
Airport Ibiza Airport (LEIB)

Arrival

Time 2026-05-07 00:10
Airport Munich Airport (EDDM)
Time Latitude Longitude Altitude Speed Heading
2026-05-06 22:00 38.87577 1.36929 28 ft 0 kts 332°
2026-05-06 22:04 38.87563 1.36939 28 ft 4 kts 329°
2026-05-06 22:04 38.87540 1.36958 28 ft 4 kts 317°
2026-05-06 22:05 38.87525 1.36984 28 ft 4 kts 278°
2026-05-06 22:05 38.87525 1.37000 28 ft 0 kts 242°
2026-05-06 22:07 38.87522 1.36993 28 ft 5 kts 242°
2026-05-06 22:08 38.87489 1.36912 28 ft 11 kts 242°
2026-05-06 22:08 38.87457 1.36833 28 ft 9 kts 242°
2026-05-06 22:08 38.87412 1.36794 28 ft 9 kts 174°
2026-05-06 22:08 38.87336 1.36839 28 ft 12 kts 154°
2026-05-06 22:09 38.87275 1.36837 28 ft 9 kts 223°
2026-05-06 22:09 38.87234 1.36738 28 ft 13 kts 243°
2026-05-06 22:09 38.87188 1.36627 28 ft 18 kts 242°
2026-05-06 22:09 38.87127 1.36479 28 ft 19 kts 242°
2026-05-06 22:10 38.87066 1.36330 27 ft 19 kts 242°
2026-05-06 22:10 38.87007 1.36186 27 ft 18 kts 242°
2026-05-06 22:10 38.86952 1.36056 27 ft 16 kts 241°
2026-05-06 22:10 38.86903 1.35936 27 ft 14 kts 243°
2026-05-06 22:11 38.86858 1.35832 27 ft 12 kts 230°
2026-05-06 22:11 38.86795 1.35840 27 ft 1 kts 149°
2026-05-06 22:12 38.86794 1.35841 27 ft 2 kts 149°
2026-05-06 22:12 38.86742 1.35879 28 ft 10 kts 151°
2026-05-06 22:13 38.86721 1.35937 28 ft 6 kts 82°
2026-05-06 22:13 38.86736 1.35985 28 ft 5 kts 63°
2026-05-06 22:13 38.86752 1.36025 28 ft 5 kts 62°
2026-05-06 22:13 38.86761 1.36046 28 ft 0 kts 62°
2026-05-06 22:15 38.86769 1.36063 28 ft 14 kts 62°
2026-05-06 22:15 38.86945 1.36486 27 ft 90 kts 62°
2026-05-06 22:15 38.87331 1.37431 29 ft 146 kts 62°
2026-05-06 22:15 38.87812 1.38687 486 ft 155 kts 65°
2026-05-06 22:16 38.88272 1.39943 1225 ft 153 kts 73°
2026-05-06 22:16 38.88565 1.41309 1638 ft 170 kts 79°
2026-05-06 22:16 38.88840 1.42891 1934 ft 192 kts 79°
2026-05-06 22:16 38.89145 1.44650 2307 ft 208 kts 79°
2026-05-06 22:17 38.89464 1.46472 2946 ft 213 kts 79°
2026-05-06 22:17 38.89794 1.48344 3734 ft 217 kts 79°
2026-05-06 22:17 38.90133 1.50248 4511 ft 220 kts 78°
2026-05-06 22:17 38.90480 1.52180 5282 ft 223 kts 77°
2026-05-06 22:18 38.90781 1.54147 6041 ft 226 kts 87°
2026-05-06 22:18 38.90688 1.56224 6509 ft 245 kts 97°
2026-05-06 22:18 38.90473 1.58503 6878 ft 268 kts 97°
2026-05-06 22:18 38.90237 1.60926 7534 ft 277 kts 96°
2026-05-06 22:19 38.89994 1.63415 8320 ft 283 kts 96°
2026-05-06 22:19 38.89670 1.65936 9112 ft 290 kts 104°
2026-05-06 22:19 38.88931 1.68336 9901 ft 295 kts 114°
2026-05-06 22:19 38.88045 1.70769 10389 ft 311 kts 114°
2026-05-06 22:20 38.87096 1.73378 10652 ft 333 kts 114°
2026-05-06 22:20 38.86098 1.76121 11200 ft 343 kts 115°
2026-05-06 22:20 38.85078 1.78922 11871 ft 346 kts 115°
2026-05-06 22:20 38.84053 1.81734 12569 ft 349 kts 116°
2026-05-06 22:21 38.83161 1.84654 13285 ft 354 kts 104°
2026-05-06 22:21 38.82990 1.87777 13961 ft 359 kts 84°
2026-05-06 22:21 38.83674 1.90850 14616 ft 361 kts 62°
2026-05-06 22:21 38.84930 1.93646 15265 ft 363 kts 58°
2026-05-06 22:22 38.86233 1.96435 15931 ft 365 kts 58°
2026-05-06 22:22 38.87548 1.99243 16636 ft 366 kts 58°
2026-05-06 22:22 38.88860 2.02051 17338 ft 367 kts 58°
2026-05-06 22:22 38.89732 2.03923 17821 ft 367 kts 58°
2026-05-06 22:23 38.91040 2.06744 18509 ft 367 kts 59°
2026-05-06 22:23 38.92338 2.09560 19146 ft 366 kts 59°
2026-05-06 22:23 38.94059 2.13294 20014 ft 365 kts 59°
2026-05-06 22:23 38.94933 2.15186 20459 ft 364 kts 59°
2026-05-06 22:24 38.96222 2.17981 21144 ft 362 kts 59°
2026-05-06 22:24 38.97486 2.20724 21831 ft 360 kts 59°
2026-05-06 22:24 38.98774 2.23515 22552 ft 357 kts 59°
2026-05-06 22:24 39.00016 2.26207 23272 ft 353 kts 59°
2026-05-06 22:25 39.01259 2.28907 23928 ft 348 kts 59°
2026-05-06 22:25 39.02485 2.31575 24530 ft 344 kts 59°
2026-05-06 22:25 39.03707 2.34242 24905 ft 348 kts 59°
2026-05-06 22:25 39.04941 2.36935 25305 ft 351 kts 59°
2026-05-06 22:26 39.06192 2.39668 25581 ft 359 kts 59°
2026-05-06 22:26 39.07450 2.42422 25941 ft 362 kts 59°
2026-05-06 22:26 39.08732 2.45232 26329 ft 365 kts 59°
2026-05-06 22:26 39.10025 2.48063 26758 ft 367 kts 58°
2026-05-06 22:27 39.11329 2.50912 27156 ft 369 kts 58°
2026-05-06 22:27 39.12635 2.53770 27528 ft 371 kts 58°
2026-05-06 22:27 39.13949 2.56654 27922 ft 374 kts 58°
2026-05-06 22:27 39.15270 2.59559 28292 ft 377 kts 58°
2026-05-06 22:28 39.16581 2.62445 28622 ft 380 kts 58°
2026-05-06 22:28 39.17932 2.65413 28901 ft 386 kts 58°
2026-05-06 22:28 39.19302 2.68417 29164 ft 391 kts 58°
2026-05-06 22:28 39.20689 2.71463 29445 ft 396 kts 58°
2026-05-06 22:29 39.22091 2.74562 29683 ft 402 kts 58°
2026-05-06 22:29 39.23513 2.77712 29922 ft 408 kts 58°
2026-05-06 22:29 39.24951 2.80898 30136 ft 415 kts 58°
2026-05-06 22:29 39.26397 2.84102 30330 ft 421 kts 58°
2026-05-06 22:30 39.27888 2.87405 30535 ft 427 kts 58°
2026-05-06 22:30 39.29400 2.90754 30728 ft 432 kts 58°
2026-05-06 22:30 39.30908 2.94096 30924 ft 438 kts 58°
2026-05-06 22:30 39.32458 2.97533 31158 ft 444 kts 58°
2026-05-06 22:31 39.34022 3.01006 31372 ft 449 kts 58°
2026-05-06 22:31 39.35583 3.04483 31566 ft 455 kts 58°
2026-05-06 22:31 39.37184 3.08054 31757 ft 460 kts 58°
2026-05-06 22:31 39.38795 3.11657 31964 ft 465 kts 58°
2026-05-06 22:32 39.40420 3.15296 32174 ft 469 kts 58°
2026-05-06 22:32 39.42066 3.18984 32384 ft 474 kts 58°
2026-05-06 22:32 39.43700 3.22648 32592 ft 478 kts 58°
2026-05-06 22:32 39.45369 3.26396 32810 ft 482 kts 59°
2026-05-06 22:33 39.47051 3.30180 33021 ft 486 kts 59°
2026-05-06 22:33 39.48741 3.33986 33247 ft 489 kts 59°
2026-05-06 22:33 39.50428 3.37785 33452 ft 493 kts 59°
2026-05-06 22:33 39.52169 3.41702 33673 ft 496 kts 59°
2026-05-06 22:34 39.53871 3.45536 33913 ft 498 kts 58°
2026-05-06 22:34 39.55608 3.49452 34115 ft 501 kts 58°
2026-05-06 22:34 39.57347 3.53384 34307 ft 503 kts 59°
2026-05-06 22:34 39.59090 3.57338 34495 ft 504 kts 59°
2026-05-06 22:35 39.60805 3.61241 34680 ft 504 kts 59°
2026-05-06 22:35 39.62544 3.65209 34876 ft 504 kts 59°
2026-05-06 22:35 39.64284 3.69169 35114 ft 504 kts 59°
2026-05-06 22:35 39.66026 3.73127 35353 ft 504 kts 59°
2026-05-06 22:36 39.67747 3.77038 35599 ft 504 kts 59°
2026-05-06 22:36 39.69480 3.80987 35850 ft 504 kts 59°
2026-05-06 22:36 39.71214 3.84951 35971 ft 503 kts 59°
2026-05-06 22:36 39.72933 3.88892 35995 ft 499 kts 59°
2026-05-06 22:37 39.76357 3.96732 35994 ft 497 kts 59°
2026-05-06 22:37 39.79749 4.04528 36000 ft 497 kts 59°
2026-05-06 22:38 39.83144 4.12361 36003 ft 497 kts 59°
2026-05-06 22:38 39.86544 4.20222 35989 ft 497 kts 59°
2026-05-06 22:39 39.89922 4.28031 35995 ft 497 kts 59°
2026-05-06 22:39 39.93305 4.35894 35999 ft 497 kts 59°
2026-05-06 22:40 39.96666 4.43724 36020 ft 497 kts 59°
2026-05-06 22:40 40.00039 4.51603 36009 ft 497 kts 59°
2026-05-06 22:41 40.05075 4.63416 35992 ft 497 kts 59°
2026-05-06 22:42 40.09056 4.70728 35999 ft 493 kts 47°
2026-05-06 22:42 40.13444 4.77577 36001 ft 493 kts 47°
2026-05-06 22:43 40.17833 4.84485 36020 ft 493 kts 47°
2026-05-06 22:43 40.22189 4.91362 36008 ft 493 kts 47°
2026-05-06 22:44 40.26574 4.98288 35987 ft 493 kts 47°
2026-05-06 22:44 40.30939 5.05193 35994 ft 493 kts 48°
2026-05-06 22:45 40.35308 5.12122 35996 ft 492 kts 48°
2026-05-06 22:45 40.39684 5.19071 36010 ft 493 kts 48°
2026-05-06 22:46 40.44035 5.25997 35997 ft 493 kts 48°
2026-05-06 22:46 40.48408 5.32986 35996 ft 494 kts 48°
2026-05-06 22:47 40.52773 5.39975 35993 ft 494 kts 48°
2026-05-06 22:47 40.57103 5.46920 36005 ft 494 kts 48°
2026-05-06 22:48 40.61460 5.53934 36012 ft 494 kts 48°
2026-05-06 22:48 40.65786 5.60910 36016 ft 494 kts 48°
2026-05-06 22:49 40.70130 5.67931 36018 ft 494 kts 48°
2026-05-06 22:49 40.74474 5.74955 36008 ft 493 kts 49°
2026-05-06 22:50 40.78805 5.81989 36038 ft 494 kts 49°
2026-05-06 22:50 40.83115 5.89000 36022 ft 494 kts 49°
2026-05-06 22:51 40.87456 5.96069 36011 ft 494 kts 49°
2026-05-06 22:51 40.91761 6.03101 36008 ft 494 kts 49°
2026-05-06 22:52 40.96087 6.10185 35989 ft 494 kts 49°
2026-05-06 22:52 41.00408 6.17278 36013 ft 495 kts 49°
2026-05-06 22:53 41.04737 6.24400 36013 ft 495 kts 49°
2026-05-06 22:53 41.09028 6.31476 36011 ft 495 kts 49°
2026-05-06 22:54 41.13345 6.38597 36011 ft 495 kts 49°
2026-05-06 22:54 41.17649 6.45740 36040 ft 495 kts 49°
2026-05-06 22:55 41.21919 6.52847 36012 ft 494 kts 49°
2026-05-06 22:55 41.26227 6.59986 36013 ft 494 kts 48°
2026-05-06 22:56 41.30612 6.67028 36015 ft 494 kts 47°
2026-05-06 22:56 41.34999 6.74014 36018 ft 493 kts 47°
2026-05-06 22:57 41.39382 6.81058 36043 ft 494 kts 48°
2026-05-06 22:57 41.43729 6.88103 36011 ft 494 kts 48°
2026-05-06 22:58 41.48086 6.95181 36011 ft 493 kts 48°
2026-05-06 22:58 41.52429 7.02247 36013 ft 493 kts 49°
2026-05-06 22:59 41.56788 7.09353 36042 ft 493 kts 49°
2026-05-06 22:59 41.61105 7.16414 36023 ft 493 kts 49°
2026-05-06 23:00 41.65451 7.23527 36014 ft 493 kts 49°
2026-05-06 23:00 41.69785 7.30652 36010 ft 494 kts 49°
2026-05-06 23:01 41.74112 7.37771 36013 ft 494 kts 49°
2026-05-06 23:01 41.78456 7.44926 36026 ft 494 kts 49°
2026-05-06 23:02 41.82800 7.52102 36018 ft 494 kts 49°
2026-05-06 23:02 41.87124 7.59278 35996 ft 495 kts 49°
2026-05-06 23:03 41.91433 7.66425 36003 ft 494 kts 49°
2026-05-06 23:03 41.95753 7.73620 36034 ft 494 kts 49°
2026-05-06 23:04 42.00069 7.80826 36026 ft 494 kts 49°
2026-05-06 23:04 42.04386 7.88054 36021 ft 494 kts 50°
2026-05-06 23:05 42.08675 7.95240 36019 ft 494 kts 50°
2026-05-06 23:05 42.12981 8.02482 36024 ft 494 kts 50°
2026-05-06 23:06 42.17254 8.09680 36022 ft 494 kts 50°
2026-05-06 23:06 42.21542 8.16920 36018 ft 493 kts 50°
2026-05-06 23:07 42.25825 8.24174 36011 ft 493 kts 50°
2026-05-06 23:07 42.30146 8.31390 36008 ft 492 kts 45°
2026-05-06 23:08 42.34435 8.36373 35989 ft 486 kts 30°
2026-05-06 23:08 42.38357 8.39227 35987 ft 479 kts 17°
2026-05-06 23:08 42.41449 8.40924 35974 ft 479 kts 17°
2026-05-06 23:09 42.47634 8.44176 35979 ft 477 kts 14°
2026-05-06 23:09 42.52887 8.46483 35978 ft 476 kts 12°
2026-05-06 23:10 42.59238 8.49075 35989 ft 476 kts 12°
2026-05-06 23:10 42.65581 8.51763 35990 ft 476 kts 12°
2026-05-06 23:11 42.71868 8.54555 36004 ft 477 kts 13°
2026-05-06 23:11 42.78197 8.57385 35993 ft 477 kts 13°
2026-05-06 23:12 42.84510 8.60193 35975 ft 477 kts 13°
2026-05-06 23:12 42.90841 8.62991 35993 ft 477 kts 13°
2026-05-06 23:13 42.97133 8.65777 35991 ft 477 kts 13°
2026-05-06 23:13 43.03458 8.68593 35980 ft 477 kts 13°
2026-05-06 23:14 43.09778 8.71421 35972 ft 477 kts 13°
2026-05-06 23:14 43.16051 8.74239 35956 ft 478 kts 13°
2026-05-06 23:15 43.22378 8.77086 35949 ft 478 kts 13°
2026-05-06 23:15 43.28694 8.79926 35948 ft 479 kts 13°
2026-05-06 23:16 43.35052 8.82782 35961 ft 479 kts 14°
2026-05-06 23:16 43.41362 8.85623 35953 ft 480 kts 14°
2026-05-06 23:17 43.47721 8.88503 35949 ft 480 kts 14°
2026-05-06 23:17 43.54052 8.91380 35964 ft 480 kts 14°
2026-05-06 23:18 43.60407 8.94271 35953 ft 481 kts 14°
2026-05-06 23:18 43.66609 8.97814 35949 ft 485 kts 24°
2026-05-06 23:19 43.72604 9.02159 35960 ft 485 kts 25°
2026-05-06 23:19 43.78550 9.06468 35957 ft 485 kts 25°
2026-05-06 23:20 43.84539 9.10818 35923 ft 485 kts 25°
2026-05-06 23:20 43.90489 9.15149 35950 ft 484 kts 25°
2026-05-06 23:21 43.96456 9.19500 35960 ft 484 kts 25°
2026-05-06 23:21 44.02424 9.23859 35961 ft 483 kts 25°
2026-05-06 23:22 44.08378 9.28220 35988 ft 483 kts 25°
2026-05-06 23:22 44.14327 9.32582 35981 ft 482 kts 25°
2026-05-06 23:23 44.20237 9.36934 35976 ft 482 kts 25°
2026-05-06 23:23 44.26177 9.41324 36003 ft 483 kts 26°
2026-05-06 23:24 44.32117 9.45718 35985 ft 483 kts 26°
2026-05-06 23:24 44.38074 9.50124 35944 ft 484 kts 26°
2026-05-06 23:25 44.43998 9.54528 35953 ft 485 kts 26°
2026-05-06 23:25 44.49964 9.58969 35955 ft 486 kts 26°
2026-05-06 23:26 44.55936 9.63424 35957 ft 486 kts 26°
2026-05-06 23:26 44.61913 9.67902 35980 ft 487 kts 26°
2026-05-06 23:27 44.67911 9.72395 35947 ft 488 kts 26°
2026-05-06 23:27 44.73906 9.76899 35936 ft 488 kts 26°
2026-05-06 23:28 44.79886 9.81410 35948 ft 489 kts 26°
2026-05-06 23:28 44.85890 9.85951 35938 ft 489 kts 26°
2026-05-06 23:29 44.91903 9.90503 35926 ft 489 kts 26°
2026-05-06 23:29 44.97869 9.95021 35932 ft 489 kts 26°
2026-05-06 23:30 45.03881 9.99595 35885 ft 489 kts 26°
2026-05-06 23:30 45.09883 10.04175 35886 ft 490 kts 26°
2026-05-06 23:31 45.15893 10.08763 35895 ft 490 kts 26°
2026-05-06 23:31 45.21864 10.13340 35891 ft 490 kts 26°
2026-05-06 23:32 45.27879 10.17958 35891 ft 490 kts 26°
2026-05-06 23:32 45.33882 10.22572 35914 ft 490 kts 26°
2026-05-06 23:33 45.39879 10.27196 35909 ft 490 kts 26°
2026-05-06 23:33 45.45848 10.31823 35963 ft 489 kts 27°
2026-05-06 23:34 45.51840 10.36482 35960 ft 489 kts 27°
2026-05-06 23:34 45.57794 10.41113 35949 ft 489 kts 27°
2026-05-06 23:35 45.63778 10.45771 35944 ft 489 kts 26°
2026-05-06 23:35 45.69753 10.50429 35950 ft 489 kts 27°
2026-05-06 23:36 45.75729 10.55107 35945 ft 489 kts 27°
2026-05-06 23:36 45.81652 10.59760 35953 ft 489 kts 27°
2026-05-06 23:37 45.87628 10.64467 35973 ft 488 kts 27°
2026-05-06 23:37 45.93589 10.69168 35977 ft 488 kts 27°
2026-05-06 23:38 45.99572 10.73810 35985 ft 487 kts 26°
2026-05-06 23:38 46.05535 10.78359 35949 ft 487 kts 26°
2026-05-06 23:39 46.11537 10.82947 35973 ft 488 kts 26°
2026-05-06 23:39 46.17524 10.87567 35985 ft 488 kts 27°
2026-05-06 23:40 46.23508 10.92219 35989 ft 487 kts 27°
2026-05-06 23:40 46.29492 10.96875 35992 ft 488 kts 27°
2026-05-06 23:41 46.35456 11.01513 35995 ft 488 kts 27°
2026-05-06 23:41 46.41715 11.05144 35962 ft 482 kts
2026-05-06 23:42 46.48311 11.05996 35969 ft 472 kts 352°
2026-05-06 23:42 46.54848 11.05515 35964 ft 472 kts 352°
2026-05-06 23:43 46.61429 11.05044 35478 ft 471 kts 352°
2026-05-06 23:43 46.64701 11.04807 34978 ft 469 kts 352°
2026-05-06 23:43 46.67911 11.04577 34498 ft 466 kts 352°
2026-05-06 23:43 46.71149 11.04346 33990 ft 465 kts 352°
2026-05-06 23:44 46.74370 11.04115 33484 ft 462 kts 352°
2026-05-06 23:44 46.77579 11.03882 32971 ft 459 kts 351°
2026-05-06 23:44 46.80758 11.03599 32472 ft 455 kts 349°
2026-05-06 23:44 46.83891 11.03146 31953 ft 450 kts 346°
2026-05-06 23:45 46.86994 11.02551 31477 ft 446 kts 345°
2026-05-06 23:45 46.90070 11.01885 31053 ft 443 kts 344°
2026-05-06 23:45 46.93126 11.01245 30912 ft 445 kts 348°
2026-05-06 23:46 46.99349 11.01504 30347 ft 451 kts
2026-05-06 23:46 47.02482 11.01974 29889 ft 450 kts
2026-05-06 23:46 47.05591 11.02475 29409 ft 447 kts
2026-05-06 23:46 47.08664 11.02982 28976 ft 442 kts
2026-05-06 23:47 47.10685 11.03312 28674 ft 439 kts
2026-05-06 23:47 47.13707 11.03793 28184 ft 434 kts
2026-05-06 23:47 47.17676 11.04402 27633 ft 429 kts
2026-05-06 23:47 47.19679 11.04702 27310 ft 425 kts
2026-05-06 23:48 47.22612 11.05140 26846 ft 421 kts
2026-05-06 23:48 47.25482 11.05569 26437 ft 417 kts
2026-05-06 23:48 47.28341 11.06001 26016 ft 411 kts
2026-05-06 23:48 47.31174 11.06431 25625 ft 406 kts
2026-05-06 23:49 47.33981 11.06860 25258 ft 402 kts
2026-05-06 23:49 47.36754 11.07290 24975 ft 398 kts
2026-05-06 23:49 47.39511 11.07720 24939 ft 398 kts
2026-05-06 23:49 47.42238 11.08144 24954 ft 399 kts
2026-05-06 23:50 47.45002 11.08568 24949 ft 398 kts
2026-05-06 23:50 47.50529 11.09411 24948 ft 399 kts
2026-05-06 23:50 47.53294 11.09836 24950 ft 399 kts
2026-05-06 23:51 47.56033 11.10570 24953 ft 402 kts 14°
2026-05-06 23:51 47.58610 11.12075 24952 ft 403 kts 27°
2026-05-06 23:51 47.61051 11.14156 24953 ft 404 kts 30°
2026-05-06 23:51 47.63482 11.16268 24953 ft 404 kts 30°
2026-05-06 23:52 47.65910 11.18377 24865 ft 402 kts 30°
2026-05-06 23:52 47.68314 11.20466 24392 ft 397 kts 30°
2026-05-06 23:52 47.70691 11.22531 23705 ft 393 kts 30°
2026-05-06 23:52 47.73037 11.24551 22969 ft 387 kts 27°
2026-05-06 23:53 47.75472 11.26096 22244 ft 381 kts 19°
2026-05-06 23:53 47.77954 11.27468 21473 ft 378 kts 19°
2026-05-06 23:53 47.80404 11.28828 20721 ft 374 kts 19°
2026-05-06 23:53 47.82829 11.30177 19987 ft 370 kts 19°
2026-05-06 23:54 47.85237 11.31518 19261 ft 366 kts 20°
2026-05-06 23:54 47.87616 11.32816 18565 ft 361 kts 16°
2026-05-06 23:54 47.90059 11.33549 17819 ft 355 kts
2026-05-06 23:54 47.92518 11.33756 17048 ft 351 kts
2026-05-06 23:55 47.94928 11.33958 16294 ft 349 kts
2026-05-06 23:55 47.97340 11.34167 15555 ft 346 kts
2026-05-06 23:55 47.99739 11.34377 14827 ft 343 kts
2026-05-06 23:55 48.02111 11.34588 14119 ft 340 kts
2026-05-06 23:56 48.04414 11.35376 13377 ft 340 kts 22°
2026-05-06 23:56 48.06379 11.37239 13011 ft 328 kts 42°
2026-05-06 23:56 48.07805 11.39791 12854 ft 323 kts 60°
2026-05-06 23:56 48.08715 11.42824 12475 ft 319 kts 71°
2026-05-06 23:57 48.09476 11.45943 12103 ft 318 kts 72°
2026-05-06 23:57 48.10228 11.49057 11750 ft 317 kts 72°
2026-05-06 23:57 48.10974 11.52156 11393 ft 315 kts 72°
2026-05-06 23:57 48.11714 11.55240 11040 ft 314 kts 72°
2026-05-06 23:58 48.12453 11.58312 10686 ft 312 kts 72°
2026-05-06 23:58 48.13179 11.61331 10361 ft 310 kts 72°
2026-05-06 23:58 48.13907 11.64355 10014 ft 308 kts 73°
2026-05-06 23:58 48.14632 11.67370 9671 ft 306 kts 73°
2026-05-06 23:59 48.15349 11.70360 9285 ft 305 kts 72°
2026-05-06 23:59 48.16063 11.73344 8887 ft 304 kts 72°
2026-05-06 23:59 48.16773 11.76327 8497 ft 303 kts 72°
2026-05-06 23:59 48.17484 11.79309 8405 ft 304 kts 72°
2026-05-07 00:00 48.18275 11.82229 8417 ft 306 kts 62°
2026-05-07 00:00 48.19347 11.84983 8223 ft 304 kts 59°
2026-05-07 00:00 48.20421 11.87710 7804 ft 303 kts 59°
2026-05-07 00:00 48.21490 11.90433 7389 ft 303 kts 59°
2026-05-07 00:01 48.22554 11.93162 6989 ft 302 kts 58°
2026-05-07 00:01 48.23611 11.95886 6602 ft 301 kts 58°
2026-05-07 00:01 48.24665 11.98599 6197 ft 300 kts 58°
2026-05-07 00:01 48.25703 12.01276 5811 ft 298 kts 57°
2026-05-07 00:02 48.26750 12.03976 5407 ft 297 kts 57°
2026-05-07 00:02 48.27788 12.06658 5059 ft 295 kts 56°
2026-05-07 00:02 48.28839 12.09227 4997 ft 277 kts 46°
2026-05-07 00:02 48.30189 12.10919 5002 ft 238 kts 19°
2026-05-07 00:03 48.31652 12.11563 5005 ft 206 kts 355°
2026-05-07 00:03 48.33008 12.11399 5015 ft 184 kts 336°
2026-05-07 00:03 48.34077 12.10725 5022 ft 150 kts 319°
2026-05-07 00:03 48.34846 12.09825 5012 ft 136 kts 309°
2026-05-07 00:04 48.35552 12.08874 5020 ft 136 kts 308°
2026-05-07 00:04 48.36094 12.07813 4750 ft 127 kts 292°
2026-05-07 00:04 48.36301 12.06525 4295 ft 128 kts 264°
2026-05-07 00:04 48.36220 12.05164 4353 ft 135 kts 269°
2026-05-07 00:05 48.36173 12.03742 4405 ft 137 kts 266°
2026-05-07 00:05 48.36096 12.02308 4314 ft 137 kts 266°
2026-05-07 00:05 48.36003 12.00881 4172 ft 137 kts 265°
2026-05-07 00:05 48.35904 11.99459 4008 ft 136 kts 265°
2026-05-07 00:06 48.35802 11.98051 3841 ft 135 kts 265°
2026-05-07 00:06 48.35699 11.96647 3654 ft 135 kts 264°
2026-05-07 00:06 48.35595 11.95246 3475 ft 134 kts 265°
2026-05-07 00:06 48.35491 11.93853 3296 ft 134 kts 265°
2026-05-07 00:07 48.35387 11.92466 3115 ft 134 kts 264°
2026-05-07 00:07 48.35282 11.91072 2936 ft 134 kts 263°
2026-05-07 00:07 48.35178 11.89689 2751 ft 132 kts 263°
2026-05-07 00:07 48.35077 11.88352 2567 ft 125 kts 263°
2026-05-07 00:08 48.34980 11.87075 2393 ft 123 kts 262°
2026-05-07 00:08 48.34883 11.85796 2222 ft 124 kts 261°
2026-05-07 00:08 48.34785 11.84503 2059 ft 127 kts 260°
2026-05-07 00:08 48.34685 11.83179 1880 ft 128 kts 262°
2026-05-07 00:09 48.34581 11.81822 1713 ft 133 kts 262°
2026-05-07 00:09 48.34477 11.80456 1530 ft 131 kts 262°
2026-05-07 00:09 48.34379 11.79190 1485 ft 102 kts 264°
2026-05-07 00:09 48.34312 11.78375 1485 ft 57 kts 263°
2026-05-07 00:10 48.34316 11.77965 1483 ft 35 kts 292°
2026-05-07 00:10 48.34409 11.77678 1478 ft 6 kts 295°
2026-05-07 00:10 48.34425 11.77624 1474 ft 5 kts 292°
2026-05-07 00:10 48.34437 11.77581 1473 ft 4 kts 291°
2026-05-07 00:11 48.34445 11.77550 1481 ft 2 kts 291°
2026-05-07 00:11 48.34457 11.77515 1476 ft 9 kts 307°
2026-05-07 00:11 48.34513 11.77510 1477 ft 8 kts 36°
2026-05-07 00:11 48.34530 11.77583 1485 ft 9 kts 82°
2026-05-07 00:12 48.34542 11.77772 1485 ft 23 kts 84°
2026-05-07 00:12 48.34563 11.78002 1479 ft 22 kts 83°
2026-05-07 00:12 48.34580 11.78217 1482 ft 20 kts 83°
2026-05-07 00:12 48.34595 11.78413 1485 ft 18 kts 83°
2026-05-07 00:13 48.34611 11.78627 1474 ft 26 kts 82°
2026-05-07 00:13 48.34631 11.78908 1485 ft 28 kts 84°
2026-05-07 00:13 48.34655 11.79202 1483 ft 29 kts 84°
2026-05-07 00:13 48.34677 11.79497 1485 ft 24 kts 67°
2026-05-07 00:14 48.34759 11.79539 1485 ft 10 kts
2026-05-07 00:14 48.34826 11.79558 1483 ft 12 kts
2026-05-07 00:14 48.34937 11.79541 1483 ft 17 kts 353°
2026-05-07 00:14 48.35046 11.79525 1477 ft 15 kts 354°
2026-05-07 00:15 48.35145 11.79507 1479 ft 13 kts 353°
2026-05-07 00:15 48.35203 11.79493 1477 ft 5 kts 333°
2026-05-07 00:15 48.35214 11.79453 1478 ft 4 kts 279°
2026-05-07 00:15 48.35214 11.79444 1484 ft 0 kts 274°
2026-05-07 00:16 48.35214 11.79443 1484 ft 2 kts 272°
2026-05-07 00:16 48.35202 11.79360 1480 ft 5 kts 260°
2026-05-07 00:16 48.35202 11.79359 1480 ft 0 kts 260°